Frankfort, KY

7:17 AM EST on February 06, 2016 (GMT -0500)
Capital City

Weather History for KFFT - May, 2013

Change the Weather History Date:

Saturday, May 25, 2013

  Actual Average Record
Temperature  
Mean Temperature 55 °F 66 °F  
Max Temperature 68 °F 78 °F 95 °F (1914)
Min Temperature 41 °F 55 °F 36 °F (1925)
Degree Days  
Heating Degree Days 10 2  
Month to date heating degree days 86 102  
Since 1 July heating degree days 4777 4680  
Cooling Degree Days 0 4  
Month to date cooling degree days 55 54  
Year to date cooling degree days 74 74  
Growing Degree Days 4 (Base 50)    
Moisture  
Dew Point 44 °F    
Average Humidity 67    
Maximum Humidity 100    
Minimum Humidity 34    
Precipitation  
Precipitation T in 0.15 in 1.39 in (1943)
Month to date precipitation 4.47 3.97  
Year to date precipitation 18.48 18.59  
Sea Level Pressure  
Sea Level Pressure 30.30 in    
Wind  
Wind Speed 2 mph (NNE)    
Max Wind Speed 8 mph    
Max Gust Speed 13 mph    
Visibility 10 miles    
Events      
T = Trace of Precipitation, MM = Missing Value Source: NWS Daily Summary

Daily Weather History Graph

Daily Weather History Graph

Search for Another Location

Airport or City:

Trip Planner

Search our weather history database for the weather conditions in past years. The results will help you decide how hot, cold, wet, or windy it might be!

Date:

Astronomy

May. 25, 2013 Rise Set
Actual Time 6:21 AM EDT 8:52 PM EDT
Civil Twilight 5:50 AM EDT 9:22 PM EDT
Nautical Twilight 5:13 AM EDT 10:00 PM EDT
Astronomical Twilight 4:31 AM EDT 10:42 PM EDT
Moon 9:39 PM EDT (5/25) 6:47 AM EDT (5/25)
Length of Visible Light 15h 31m
Length of Day
14h 30m
Full, 100% of the Moon is Illuminated
May 25
Full
May 31
Last Quarter
Jun 8
New
Jun 16
First Quarter
Jun 23
Full

Hourly Weather History & Observations

Time (EDT) Temp. Dew Point Humidity Pressure Visibility Wind Dir Wind Speed Gust Speed Precip Events Conditions
12:53 AM 46.9 °F 45.0 °F 93% 30.30 in 10.0 mi Calm Calm - N/A   Clear
1:53 AM 46.0 °F 44.1 °F 93% 30.32 in 10.0 mi Calm Calm - N/A   Clear
2:53 AM 45.0 °F 44.1 °F 97% 30.30 in 10.0 mi Calm Calm - N/A   Clear
3:53 AM 44.1 °F 43.0 °F 96% 30.30 in 9.0 mi Calm Calm - N/A   Clear
4:53 AM 43.0 °F 41.0 °F 93% 30.30 in 10.0 mi Calm Calm - N/A   Clear
5:53 AM 42.1 °F 41.0 °F 96% 30.31 in 10.0 mi Calm Calm - N/A   Clear
6:53 AM 42.1 °F 41.0 °F 96% 30.33 in 10.0 mi Calm Calm - N/A   Clear
7:53 AM 48.0 °F 46.0 °F 93% 30.34 in 10.0 mi Calm Calm - N/A   Clear
8:53 AM 54.0 °F 48.0 °F 80% 30.33 in 10.0 mi ESE 5.8 mph - N/A   Clear
9:53 AM 59.0 °F 46.0 °F 62% 30.36 in 10.0 mi Calm Calm - N/A   Clear
10:53 AM 63.0 °F 45.0 °F 52% 30.37 in 10.0 mi Calm Calm - N/A   Clear
11:53 AM 63.0 °F 39.9 °F 43% 30.36 in 10.0 mi Calm Calm - N/A   Clear
12:53 PM 66.0 °F 37.9 °F 36% 30.35 in 10.0 mi NNW 4.6 mph - N/A   Clear
1:53 PM 66.0 °F 42.1 °F 42% 30.32 in 10.0 mi ENE 3.5 mph - N/A   Overcast
2:53 PM 64.0 °F 37.9 °F 38% 30.34 in 10.0 mi Calm Calm - N/A   Clear
3:53 PM 66.0 °F 42.1 °F 42% 30.32 in 10.0 mi NW 4.6 mph - N/A   Mostly Cloudy
4:53 PM 66.0 °F 42.1 °F 42% 30.30 in 10.0 mi Calm Calm - N/A   Mostly Cloudy
5:53 PM 64.9 °F 42.1 °F 43% 30.28 in 10.0 mi Calm Calm - N/A   Scattered Clouds
6:53 PM 64.0 °F 43.0 °F 46% 30.27 in 10.0 mi Calm Calm - N/A   Overcast
7:53 PM 64.0 °F 45.0 °F 50% 30.21 in 10.0 mi East 5.8 mph - N/A   Overcast
8:53 PM 62.1 °F 48.0 °F 60% 30.22 in 10.0 mi ENE 3.5 mph - N/A   Overcast
9:53 PM 61.0 °F 48.0 °F 62% 30.23 in 10.0 mi North 3.5 mph - N/A   Overcast
10:53 PM 61.0 °F 46.0 °F 58% 30.27 in 10.0 mi NNE 4.6 mph - N/A   Overcast
11:53 PM 60.1 °F 46.9 °F 62% 30.27 in 10.0 mi North 4.6 mph - N/A   Overcast